Regional Weather Roundup
Issued by NWS

Home | Current Version | Previous Version | Graphics & Text | Print | Product List | Glossary On
Versions: 1 2 3 4 5 6 7 8 9 10 11 12 13 14 15 16 17 18 19 20 21 22 23 24 25 26 27 28 29 30 31 32 33 34 35 36 37 38 39 40 41 42 43 44 45 46 47 48 49 50
000
ASUS45 KTFX 250310
RWRMT
MONTANA REGIONAL WEATHER ROUNDUP
NATIONAL WEATHER SERVICE GREAT FALLS MT
900 PM MDT MON APR 24 2017

NOTE: "FAIR" INDICATES FEW OR NO CLOUDS BELOW 12000 FEET WITH NO
SIGNIFICANT WEATHER AND/OR OBSTRUCTIONS TO VISIBILITY.

MTZ001>007-043-250400-
WEST OF THE DIVIDE

CITY           SKY/WX    TMP DP  RH WIND       PRES   REMARKS
KALISPELL      CLOUDY    45  40  82 NW3       29.66R
MISSOULA       CLOUDY    43  41  93 W5        29.69R FOG
BUTTE          LGT RAIN  35  33  92 SE7       29.64R WCI  29
MULLAN PASS    FOG       31  31 100 NW5       29.67R VSB 1/2
ANACONDA         N/A     39  34  81 W10       29.64R
DEER LODGE       N/A     45  34  65 CALM      29.65R
EUREKA           N/A     45  37  76 CALM      29.68R
HAMILTON         N/A     45  37  76 W3        29.67R
LIBBY            N/A     48  36  61 N7        29.65R
$$

MTZ008-052>055-250400-
SOUTHWEST MONTANA

CITY           SKY/WX    TMP DP  RH WIND       PRES   REMARKS
BOZEMAN        CLOUDY    46  35  65 W8        29.58R
DILLON         LGT RAIN  39  35  86 SW7       29.61R
W YELLOWSTONE  CLOUDY    32  32 100 SW9       29.62R WCI  24
ENNIS          CLOUDY    39  36  87 NE7       29.65R FOG
THREE FORKS      N/A     45  31  58 CALM      29.63R
$$

MTZ009-010-012-014-046-048-049-054-250400-
EAST SLOPES AND CENTRAL MONTANA

CITY           SKY/WX    TMP DP  RH WIND       PRES   REMARKS
CUT BANK       CLOUDY    40  36  86 N13       29.66R
GREAT FALLS    LGT RAIN  45  37  73 E10       29.64R
MALMSTROM AFB  CLOUDY    45  38  78 E10       29.64R
HELENA         CLOUDY    49  35  58 N10       29.60R
AUGUSTA        LGT RAIN  41  37  83 NE13      29.65R
BOWMANS CRNR   MOCLDY    39  36  90 NE12      29.62R WCI  32
CHOTEAU          N/A     41  37  87 NE12      29.67R
FAIRFIELD      MOCLDY    41  35  80 N15       29.64R
POWER          DRIZZLE   40  38  92 NW18      29.65R
RAYNESFORD     CLOUDY    42  39  90 W5        29.64R
ULM            LGT RAIN  46  38  74 NE16      29.64R
$$

MTZ011-013-016-021-045-047-050-051-250400-
NORTH CENTRAL MONTANA

CITY           SKY/WX    TMP DP  RH WIND       PRES   REMARKS
HAVRE          CLOUDY    46  39  76 E17       29.66R
LEWISTOWN      CLOUDY    40  36  86 E8        29.63R
N BAR RANCH    CLOUDY    41  39  93 E5        29.67R
CHINOOK          N/A     43  34  70 E17       29.69R
DENTON         LGT RAIN  43  38  84 W12G30    29.62R
FORT BENTON      N/A     45  39  81 MISG      29.64R
GEYSER         LGT RAIN  42  38  87 NE10      29.64R
GRASS RANGE    MOCLDY    42  40  95 CALM      29.61R
JUDITH GAP     CLOUDY    42  36  78 NW13      29.60R
STANFORD       MOCLDY    39  37  90 N14       29.63R WCI  31
WINIFRED       MOCLDY    42  38  86 E7        29.63R
$$

MTZ017>020-022>027-061-062-250400-
NORTHEAST MONTANA

CITY           SKY/WX    TMP DP  RH WIND       PRES   REMARKS
GLASGOW        CLOUDY    33  25  72 E18       29.77R WCI  22
JORDAN           N/A     38  32  79 NE17      29.70R WCI  28
SIDNEY         CLOUDY    33  28  81 NE10      29.79R WCI  25
WOLF POINT     CLOUDY    34  26  72 E15       29.79R WCI  24
MALTA          PTCLDY    36  30  80 NE17G24   29.74R WCI  25
PLENTYWOOD       N/A     28  27  93 E13G18    29.82R WCI  18
POPLAR           N/A     32  25  74 NE15      29.80R WCI  22
$$

MTZ028>42-056>058-250400-
SOUTHCENTRAL AND SOUTHEAST MONTANA

CITY           SKY/WX    TMP DP  RH WIND       PRES   REMARKS
BAKER          CLOUDY    39  33  79 NE12      29.68R WCI  32
BILLINGS       LGT RAIN  45  41  86 NE8       29.60R
LIVINGSTON     CLOUDY    46  37  71 N7        29.59R
MILES CITY     CLOUDY    43  35  73 NE17      29.66R
BIG TIMBER     CLOUDY    41  41 100 E10       29.63R FOG
LAUREL           N/A     45  39  79 N9        29.63R
ROUNDUP          N/A     46  39  76 NE5       29.58R
$$

REGIONAL REPORTS...DAKOTAS

CITY           SKY/WX    TMP DP  RH WIND       PRES   REMARKS
WILLISTON      CLOUDY    32  26  78 NE15      29.81R WCI  22
MINOT          CLOUDY    33  28  81 N14       29.78R WCI  23
DICKINSON      CLOUDY    30  28  92 NE14      29.71R FOG     WCI  19
BEACH          CLOUDY    34  32  93 E10       29.74R WCI  26
TIOGA          CLOUDY    28  28 100 NE14      29.80R WCI  17
WATFORD CITY   CLOUDY    30  27  86 NE12      29.78R WCI  21
BISMARCK       CLOUDY    35  30  82 N10       29.73S WCI  27
GRAND FORKS    DRIZZLE   35  33  92 N17       29.68R WCI  25
FARGO          CLOUDY    37  36  96 N21G30    29.61R WCI  26
BUFFALO SD       N/A     42  36  79 E18       29.59R
RAPID CITY     MOCLDY    49  39  68 E14       29.61R
$$

REGIONAL REPORTS...WYOMING/IDAHO/WASHINGTON

CITY           SKY/WX    TMP DP  RH WIND       PRES   REMARKS
GILLETTE       CLOUDY    46  46 100 NE13      29.54R
SHERIDAN       LGT RAIN  44  40  85 NE12      29.58R
BUFFALO WY     LGT RAIN  42  37  82 NW7       29.58R
CODY           LGT RAIN  39  36  89 N7        29.59R
YELLOWSTONE LA   N/A     31  30  96 CALM      29.64R
IDAHO FALLS    RAIN      42  38  85 W18G25    29.66R FOG
SALMON         CLOUDY    41  37  87 CALM      29.65R
BOISE          CLOUDY    49  39  68 W10       29.73R
SPOKANE        MOCLDY    49  36  61 W6        29.70R
$$

REGIONAL REPORTS...ALBERTA

CITY           SKY/WX    TMP DP  RH WIND       PRES   REMARKS
EDMONTON       MIX PCPN  32  32 100 N3        29.83R
CALGARY        LGT RAIN  36  34  93 NE14      29.74R FOG     WCI  27
LETHBRIDGE     CLOUDY    43  37  81 NE6       29.69R
MEDICINE HAT   MOCLDY    41  37  87 E16G25    29.72R
WATERTON GATE    N/A     36  34  93 CALM        N/A
MILK RIVER       N/A     43  37  81 N9          N/A
$$

REGIONAL REPORTS...SASKATCHEWAN

CITY           SKY/WX    TMP DP  RH WIND       PRES   REMARKS
SWIFT CURRENT  CLOUDY    28  25  86 E17G23    29.80R WCI  16
REGINA         MOCLDY    28  23  80 E12G18    29.90R WCI  18
SASKATOON      CLOUDY    30  23  74 E9        29.96R WCI  22
CYPRESS HILLS    N/A     32  30  93 E7          N/A  WCI  26
VAL MARIE        N/A     32  27  80 E16G22      N/A  WCI  21
$$



USA.gov is the U.S. government's official web portal to all federal, state and local government web resources and services.